Theta_e
324 325 323 322 323 326 326 324 323 319 313 309 308 311 316 318 317 314 313 312 308 305 306 306 305 305 306 306 307 307 308 308 308 308 309 309 309 310 311 313 311 310 312 313 312 312 312 311 310 310 312 313 314 314 314 314 313 314 314 314 315 316 316 316 313 310 308 307 308 308 308 308 309 309 309 310 311 309 308 308 309 308 307 308 309
325 325 324 322 322 324 324 323 324 322 318 311 309 312 315 314 312 310 311 312 311 310 311 310 308 307 307 308 308 309 309 309 309 309 309 309 309 309 311 313 311 310 311 312 311 310 311 310 310 309 310 313 315 315 315 315 314 314 315 315 315 315 315 315 314 312 310 309 309 309 310 310 309 309 310 310 310 310 309 309 310 308 308 308 309
326 327 325 321 321 323 322 323 324 324 322 316 311 311 311 311 310 308 310 311 312 316 316 313 312 312 311 310 309 309 309 309 309 309 309 309 309 309 309 310 310 309 309 312 313 312 311 310 309 309 309 311 314 314 315 315 315 315 315 315 315 315 315 315 314 313 313 311 310 310 311 312 310 310 310 310 310 311 310 310 310 309 309 309 309
325 327 325 322 322 323 322 323 324 325 324 319 315 312 310 310 309 310 314 314 314 318 317 315 316 316 315 315 312 310 310 309 309 309 309 309 309 309 310 311 312 312 312 314 316 316 315 314 313 312 310 309 311 313 314 315 316 315 315 316 316 315 315 315 315 314 314 313 312 312 312 312 311 310 311 310 311 311 311 310 311 310 310 310 310
326 326 325 323 324 325 324 324 325 326 324 320 319 317 313 311 310 311 318 319 316 318 317 315 316 317 317 318 316 314 312 310 309 309 309 309 310 312 313 315 316 316 316 317 317 317 317 317 318 316 314 312 313 315 315 315 315 315 315 315 315 315 315 315 315 315 315 314 314 313 313 312 312 312 312 311 311 311 311 311 311 311 311 311 310
325 327 327 325 325 324 323 323 325 327 325 321 322 320 317 317 314 312 318 320 318 319 319 316 317 317 316 317 317 317 316 315 313 313 313 312 313 315 316 317 317 316 317 317 317 317 317 318 319 319 317 316 315 316 315 314 315 314 314 315 314 314 315 315 315 315 315 315 315 314 314 313 313 313 312 311 312 312 311 311 311 311 311 310 310
325 327 327 327 327 326 325 325 326 327 325 323 323 321 319 319 317 315 319 320 318 319 319 317 317 317 317 317 317 317 318 318 318 318 318 318 318 318 318 319 318 317 317 317 317 317 316 316 317 318 318 317 316 315 315 315 315 314 314 314 313 314 314 315 315 315 315 315 315 315 314 313 313 313 312 312 312 312 312 311 311 311 310 309 309
326 326 326 327 327 327 327 327 327 326 326 325 323 321 320 320 318 316 319 320 319 319 319 318 317 316 317 318 317 317 318 318 319 319 320 320 320 319 320 320 319 319 318 319 319 319 318 318 318 318 318 317 316 316 316 316 315 314 314 314 314 315 315 315 315 315 315 315 315 315 314 314 313 313 313 312 312 312 311 311 311 310 308 308 308
326 326 326 326 326 326 326 327 327 326 326 324 321 320 321 321 319 317 317 318 319 319 319 319 318 317 317 317 318 318 318 318 319 319 319 319 319 320 321 321 321 320 320 320 320 319 319 319 319 318 318 318 317 317 317 317 316 315 315 315 315 315 315 315 314 314 315 315 315 315 314 314 314 313 313 313 312 312 311 311 310 309 308 308 308
325 325 326 326 326 326 326 326 326 326 326 324 323 322 323 323 321 319 319 318 319 319 319 319 318 318 318 318 318 319 318 318 319 318 319 320 320 321 322 321 320 319 318 318 317 316 318 320 318 317 318 319 318 318 318 317 317 316 316 316 316 315 315 315 314 314 314 315 315 315 314 314 314 313 313 313 312 312 311 310 310 309 308 308 308
324 324 324 324 325 326 325 325 325 326 325 325 325 324 324 324 323 321 321 320 319 319 319 319 318 318 319 319 319 320 319 319 318 317 317 318 319 320 320 320 319 318 317 317 317 316 317 319 317 316 318 320 319 318 317 317 317 317 317 316 316 316 316 315 315 315 314 314 314 314 314 314 314 313 313 312 312 311 311 310 310 309 308 307 307
322 322 322 322 323 324 324 324 324 325 325 324 324 324 324 324 323 323 323 322 321 320 319 319 319 318 319 319 319 320 320 320 319 317 317 316 316 318 320 320 319 318 317 316 317 316 316 316 316 316 318 319 319 318 317 317 317 317 317 317 317 316 316 316 316 315 314 314 314 314 314 313 313 313 312 312 312 311 310 310 309 308 307 306 306
320 320 321 321 321 321 321 322 322 323 324 323 323 324 323 323 323 323 322 322 321 320 320 320 320 319 318 318 319 320 320 320 319 318 317 316 315 316 318 319 318 317 317 316 316 317 316 316 317 316 316 318 318 316 315 316 317 317 317 317 317 316 316 316 316 315 314 313 313 313 313 313 312 312 312 312 311 310 310 309 309 308 307 306 306
316 317 317 317 317 318 319 319 320 320 322 322 322 323 323 323 323 322 321 320 320 319 319 319 319 318 318 317 319 320 320 319 318 317 317 316 315 316 317 318 317 317 317 316 316 316 317 317 317 315 315 317 316 312 311 312 315 317 318 317 316 316 316 315 315 315 314 313 313 312 313 312 312 311 311 311 310 309 309 308 308 307 306 305 305
314 314 314 314 314 314 315 316 316 316 318 319 319 320 321 322 321 320 319 319 318 317 318 317 317 317 317 318 319 319 318 318 317 317 317 316 316 317 317 317 317 316 316 315 316 316 316 316 316 315 315 316 315 312 309 309 311 313 314 314 314 314 315 315 314 314 314 313 312 312 312 311 310 310 310 309 309 308 308 307 306 305 304 304 303
312 312 313 313 313 313 313 313 313 313 314 315 315 316 318 319 319 319 318 317 316 315 316 315 314 314 315 317 319 319 318 317 317 317 318 318 318 317 317 317 316 315 315 315 315 316 315 315 315 315 315 315 314 312 309 308 309 308 309 311 310 309 312 314 314 313 313 312 312 311 310 310 309 309 309 308 308 307 306 305 304 304 303 302 301
309 309 310 310 311 312 312 313 313 313 313 313 314 313 314 316 317 318 318 318 317 316 316 315 314 313 312 313 316 318 318 317 317 318 318 317 317 317 317 317 315 315 315 315 314 314 315 315 314 314 313 314 313 312 310 309 308 305 306 309 308 307 310 313 313 313 312 312 311 310 309 309 308 308 307 307 306 305 305 304 303 302 301 300 299
307 307 308 308 308 309 310 311 312 312 313 313 313 313 313 313 314 315 316 317 317 317 318 318 317 316 315 314 315 316 316 316 316 316 316 316 317 317 317 316 314 314 315 314 314 314 313 313 313 313 313 313 312 311 309 308 308 306 307 309 308 307 308 310 311 311 311 310 310 309 308 308 307 307 306 306 305 304 303 302 301 300 300 299 299
307 306 306 307 307 307 308 309 310 311 312 312 313 313 313 313 313 313 314 315 315 316 317 317 317 317 317 316 314 314 315 315 314 314 314 316 317 317 315 314 314 315 314 313 313 313 309 307 309 310 310 309 307 306 305 306 308 309 309 309 308 307 307 308 308 308 308 308 308 307 307 307 306 306 305 304 302 301 301 300 299 299 299 299 299
306 306 305 305 305 305 306 307 308 308 310 310 311 312 312 312 313 313 313 314 314 315 315 316 316 316 315 315 314 313 314 314 313 313 314 314 315 314 312 312 314 315 314 313 313 311 307 304 305 305 304 304 304 303 303 305 307 309 310 310 309 309 309 309 308 308 308 307 307 306 306 305 304 303 302 301 301 300 300 300 300 299 299 299 299
303 304 304 303 302 303 304 306 307 307 307 307 308 308 309 310 311 312 313 313 313 313 313 314 314 313 313 313 313 312 313 313 312 312 311 309 309 308 307 311 314 314 314 314 313 311 309 306 304 304 303 303 304 303 303 304 307 310 311 311 310 310 310 309 309 309 308 307 306 305 303 303 302 302 301 300 300 300 300 299 299 299 299 299 299
299 299 300 301 301 301 302 302 303 303 303 303 304 305 306 307 308 310 312 313 313 312 312 312 312 312 311 312 312 312 311 310 310 311 310 308 307 305 304 310 314 314 313 313 312 312 311 308 305 305 304 304 304 304 303 303 306 309 310 310 310 309 309 308 308 307 306 306 304 303 302 302 301 301 300 300 300 300 299 299 299 299 298 298 298
297 297 298 299 299 299 299 299 300 300 300 301 301 302 303 304 305 306 308 310 311 312 312 312 311 311 310 310 310 311 310 309 308 308 308 307 307 305 304 308 312 313 313 313 312 312 311 308 306 305 305 305 305 304 303 302 304 308 310 310 309 308 307 307 306 305 304 303 302 301 301 301 300 300 300 300 300 299 299 299 298 298 297 297 297
298 298 298 297 297 297 298 299 300 301 302 302 302 302 303 304 304 305 306 308 309 311 312 312 311 311 311 310 310 310 309 309 308 306 304 303 304 304 302 304 309 313 312 312 312 312 310 310 308 306 305 306 305 304 302 302 303 306 308 308 307 306 305 304 303 303 302 301 300 300 300 300 300 300 300 299 299 298 298 297 296 296 296 296 296
300 300 300 299 299 299 299 299 300 301 301 302 302 303 303 304 304 305 306 307 308 309 310 311 311 311 311 310 310 309 309 310 308 305 302 301 302 302 301 302 307 311 311 310 310 311 310 310 309 307 305 305 305 303 302 302 302 303 304 304 304 303 302 301 301 300 300 300 300 299 299 299 299 299 298 298 298 297 296 296 296 296 296 295 295
300 300 300 300 300 300 300 300 300 300 300 301 302 302 303 303 303 304 304 305 306 307 309 310 310 311 311 310 310 309 309 310 309 305 302 303 303 303 303 303 304 308 309 309 309 310 310 309 308 306 304 304 303 302 302 302 302 302 302 302 302 301 301 300 300 300 299 299 299 298 298 299 298 298 297 297 297 297 296 296 296 295 295 294 294
299 299 299 299 299 299 300 300 300 300 300 300 301 301 302 302 302 303 303 303 304 305 306 307 308 309 310 310 310 309 309 310 310 307 303 303 304 304 304 304 303 304 306 308 310 310 309 309 307 305 304 303 302 302 303 303 303 302 302 301 300 300 300 299 299 298 297 297 298 298 298 297 296 296 296 296 296 296 296 295 295 295 294 294 293
298 298 298 298 299 299 299 299 299 299 300 300 300 300 300 301 301 302 302 303 303 303 304 305 306 307 308 308 309 309 309 308 309 308 305 304 303 304 304 304 304 303 303 305 308 309 308 307 305 304 303 303 303 303 303 303 303 302 301 300 299 299 299 298 297 297 297 297 297 297 296 295 295 295 295 295 295 295 295 294 294 294 293 293 292
298 298 298 298 298 298 298 298 299 299 299 299 299 300 300 300 300 301 301 302 303 303 304 304 305 307 309 309 308 309 308 307 307 307 307 306 304 303 304 303 304 304 303 303 305 307 306 305 304 303 303 303 304 304 303 302 301 300 299 299 298 298 298 297 296 296 297 297 296 295 294 294 294 295 295 295 294 294 294 293 293 293 292 292 292
297 297 297 297 298 298 297 297 297 298 298 298 298 299 299 300 300 300 300 301 302 302 302 302 303 306 308 308 308 308 307 307 307 307 308 307 304 303 303 304 304 304 303 303 304 305 304 303 303 304 304 304 304 303 301 300 299 299 299 298 297 297 297 296 295 295 295 295 294 294 294 294 294 294 294 294 294 294 293 292 292 292 292 292 292
297 297 297 297 297 297 297 297 297 297 297 297 297 297 298 299 300 300 300 300 300 301 301 301 302 302 304 305 306 307 307 307 306 306 307 307 305 303 303 304 304 304 303 303 304 305 304 304 304 305 305 304 303 301 300 299 299 298 298 297 296 296 296 295 295 294 294 294 293 293 294 294 294 294 294 294 293 293 292 292 292 292 292 292 291
296 297 297 297 296 296 296 296 296 296 296 296 296 296 296 297 298 299 299 299 299 300 300 301 301 301 301 301 302 304 306 306 306 306 306 306 306 305 305 304 304 304 303 302 303 304 305 305 305 305 304 303 301 300 299 299 298 297 297 296 296 295 295 294 294 294 293 293 293 293 293 294 294 294 294 293 293 292 292 292 292 292 291 291 291
296 296 296 296 296 296 296 296 296 296 295 295 295 296 296 296 296 297 298 298 299 299 300 300 301 301 301 301 300 301 302 304 304 305 306 306 305 306 305 304 303 303 303 303 303 304 305 306 305 304 302 301 300 299 299 298 297 297 296 296 295 295 295 295 294 294 293 293 292 293 293 294 293 293 293 293 292 292 292 291 291 291 291 291 291
296 296 296 296 296 296 296 296 296 296 296 296 296 296 295 295 296 296 296 297 298 299 299 300 301 301 301 301 301 300 301 301 301 302 303 305 305 305 304 304 303 303 304 304 304 305 305 304 303 302 301 300 299 299 298 297 297 296 296 295 295 295 295 294 293 293 293 292 292 293 294 293 293 293 293 292 292 292 291 291 291 290 290 290 290
297 297 297 297 296 296 296 296 296 296 296 296 296 296 296 295 295 296 296 296 297 298 298 299 300 301 302 302 301 301 301 301 300 299 300 302 304 304 303 303 303 303 304 304 304 304 304 302 301 301 300 299 299 298 297 297 296 296 295 295 295 295 295 293 292 292 292 291 292 293 293 293 293 293 293 292 292 292 291 291 291 290 290 290 290
297 297 296 296 296 296 296 296 296 296 296 296 295 295 295 295 295 295 295 295 296 297 298 299 300 301 301 301 301 302 302 300 300 300 300 302 304 304 303 303 303 303 303 303 302 302 302 301 300 300 299 298 298 297 297 296 296 295 295 295 295 294 294 292 292 292 292 291 292 293 292 292 292 293 292 292 292 291 291 291 291 290 290 290 290
297 296 296 296 296 295 295 295 295 295 295 295 294 294 294 294 295 295 295 295 296 297 297 298 299 300 301 301 301 301 301 301 301 302 303 303 305 304 303 303 303 304 303 302 301 301 301 301 300 299 299 298 297 297 296 296 295 295 296 295 294 294 293 292 292 292 292 292 292 292 292 292 292 292 292 292 292 291 291 290 290 290 290 290 290
297 296 296 295 295 296 295 295 294 294 294 294 294 294 294 294 294 294 294 294 295 296 297 298 299 300 300 300 301 301 301 302 303 304 304 304 304 303 303 303 303 303 303 302 301 301 300 300 299 299 298 297 297 296 296 296 296 296 295 294 294 293 292 292 292 293 293 292 291 291 292 292 291 291 291 291 291 291 290 290 290 290 290 290 290
296 296 296 296 296 295 294 294 293 293 293 293 293 293 293 293 294 294 294 294 295 296 297 298 299 299 299 300 300 301 302 303 303 303 302 302 302 302 302 302 302 301 301 301 300 300 300 299 299 299 297 297 297 296 296 295 295 295 294 293 293 292 292 292 293 293 293 292 291 290 290 291 290 291 291 291 290 290 289 289 289 290 290 291 291
295 295 296 296 295 294 294 294 294 294 293 293 293 293 293 293 294 294 294 294 295 296 297 298 299 299 299 299 299 300 301 301 302 301 301 301 301 301 301 300 299 299 299 299 299 299 299 299 298 298 297 297 296 296 296 295 294 294 293 292 292 292 292 292 292 292 292 291 290 289 290 290 290 291 291 290 290 289 289 289 290 290 291 291 291
295 295 295 296 295 294 294 295 295 295 294 294 294 294 293 294 294 294 295 295 296 297 298 298 299 299 299 299 298 299 299 300 301 301 299 299 299 299 299 298 298 298 298 299 299 299 298 298 298 297 297 296 296 295 295 294 293 293 292 292 292 291 291 292 292 292 291 290 289 289 290 290 291 291 290 290 289 289 289 290 290 290 291 291 291
296 295 295 295 295 295 295 295 295 295 295 295 295 295 295 295 296 296 296 296 297 297 298 298 298 299 299 298 297 298 299 300 300 300 298 297 297 298 298 298 298 298 298 298 298 298 298 297 297 296 296 295 295 294 294 293 292 292 292 291 291 291 291 291 291 291 290 289 289 289 290 290 290 290 290 290 289 289 289 290 290 290 291 290 290
296 295 295 295 295 295 295 295 295 296 296 296 296 296 296 296 297 297 297 296 296 297 297 298 298 298 298 297 297 298 298 299 299 299 297 296 297 298 297 297 297 297 297 297 297 297 296 296 295 295 295 294 293 293 292 292 292 291 291 292 291 291 290 290 290 289 289 289 289 289 290 290 290 290 290 289 289 290 290 290 291 291 291 290 290
296 295 295 295 295 295 295 296 296 296 296 296 296 296 296 296 296 296 296 296 296 297 297 297 297 297 297 297 297 298 298 297 297 297 297 297 297 297 297 296 296 296 296 296 295 295 295 295 295 294 294 293 293 292 292 292 292 292 291 291 290 289 288 288 288 288 288 289 289 289 289 290 290 290 290 289 289 290 290 291 291 291 290 290 290
295 295 295 296 296 295 295 296 296 296 296 296 296 296 296 296 296 296 296 296 296 296 297 296 296 297 297 297 296 296 296 295 295 296 296 297 297 297 297 296 295 295 295 294 294 294 294 294 294 294 293 293 292 292 291 291 291 290 290 288 288 287 287 287 288 288 288 288 289 289 289 289 290 290 290 290 290 290 290 290 290 290 290 290 291
296 295 295 296 296 295 295 295 295 295 296 296 295 295 295 295 295 296 295 295 295 296 296 295 295 295 296 296 295 295 294 295 295 296 296 297 297 296 296 295 295 294 294 294 294 294 294 294 294 294 293 292 292 292 291 290 290 289 288 288 288 288 287 287 287 287 288 288 288 288 288 289 289 289 289 290 290 290 290 290 290 290 291 292 291
296 295 295 296 296 295 295 294 294 295 295 295 295 295 294 294 294 295 295 295 295 295 295 295 295 295 295 295 295 294 294 295 295 295 295 296 296 295 295 295 294 294 294 293 293 293 294 293 293 293 292 292 292 291 290 289 289 288 288 288 289 288 288 287 287 287 287 287 288 288 288 288 288 289 289 289 290 290 290 290 290 291 292 292 291
296 296 295 295 295 295 295 294 294 294 294 294 294 294 294 294 294 294 295 295 295 295 295 295 295 295 295 295 294 294 294 295 295 295 295 295 295 294 294 294 294 293 293 293 293 293 292 292 292 292 291 291 290 289 289 288 288 288 289 290 290 290 289 288 287 287 287 287 287 287 287 287 288 288 289 289 289 290 290 290 291 291 292 292 292
296 296 296 295 295 295 294 294 293 293 294 294 294 294 293 293 293 293 294 294 295 295 295 295 295 295 295 295 294 294 294 294 294 294 294 294 294 294 294 294 293 293 293 292 292 291 291 291 291 291 291 290 289 288 288 288 289 289 290 291 291 291 291 290 289 289 289 288 288 288 287 287 287 288 288 289 289 290 290 290 291 291 292 292 292
296 296 296 296 295 294 294 294 293 293 293 294 294 293 293 293 293 293 293 294 294 294 295 295 294 294 294 294 294 294 294 294 294 294 294 294 294 294 293 293 293 293 292 291 290 290 291 291 291 290 290 289 288 288 288 289 290 290 291 291 291 291 291 291 291 291 290 290 290 289 288 288 288 288 288 289 289 290 290 290 291 291 291 291 291
296 296 296 296 295 295 295 294 293 293 293 293 293 293 293 293 293 293 292 293 293 294 294 294 294 294 294 294 294 294 294 294 294 294 294 294 293 293 293 293 292 292 291 289 289 290 291 291 290 290 289 289 288 288 289 290 290 291 291 291 291 291 291 291 291 291 291 291 291 291 290 289 288 288 288 288 289 289 290 290 290 291 291 290 291
Wind_Speed
27 26 26 25 25 24 22 20 17 15 15 15 15 16 16 16 16 15 12 11 9 9 9 8 8 9 9 10 10 10 10 10 10 9 8 8 8 8 9 6 5 7 8 6 6 7 7 6 6 8 10 12 12 10 9 9 9 11 9 8 12 12 7 4 8 9 8 8 8 5 7 7 3 1 5 9 9 7 7 11 14 13 13 15 15
26 26 25 25 25 22 20 18 17 16 16 16 16 17 17 17 16 14 13 11 10 9 9 9 9 9 10 10 10 9 9 8 8 6 6 5 4 5 6 4 2 3 3 3 2 3 3 2 3 5 6 9 11 8 7 8 8 9 10 10 11 11 9 5 5 7 8 8 7 5 8 7 5 2 4 8 11 7 2 8 11 10 13 16 15
25 25 25 26 25 23 20 18 18 17 16 16 17 18 18 17 14 13 12 11 11 9 8 9 9 9 9 9 9 9 8 8 6 5 4 3 2 2 2 1 1 1 1 3 2 3 2 2 1 1 3 6 8 9 9 10 8 4 5 6 6 8 10 8 6 8 8 6 6 7 5 5 5 1 6 8 11 7 2 4 8 7 9 13 15
23 24 24 25 25 24 21 19 19 18 17 17 17 16 17 16 14 13 11 10 11 10 9 9 9 8 8 8 8 8 8 8 6 5 4 4 4 4 5 4 3 3 0 2 2 5 4 3 4 2 2 4 5 6 7 8 6 2 3 4 3 6 10 9 6 5 5 6 7 6 3 5 5 1 2 4 7 6 5 4 4 5 4 7 12
17 19 21 23 23 22 20 18 19 19 17 16 15 14 14 15 14 13 11 10 11 10 10 10 9 9 9 8 8 8 8 8 7 6 6 6 6 6 6 5 4 3 3 3 5 6 3 2 3 3 2 3 4 5 6 7 7 6 6 7 6 6 8 9 6 3 4 5 3 2 4 5 2 1 2 3 2 1 3 3 3 4 5 6 11
13 15 18 20 21 21 21 20 20 20 19 18 15 13 12 12 12 12 11 10 12 11 11 10 10 10 9 9 9 8 8 7 6 6 7 7 7 8 7 6 6 5 5 5 6 7 6 3 3 4 3 2 5 7 6 6 8 8 6 7 8 5 6 7 6 4 3 2 1 1 3 3 2 1 2 6 3 2 3 5 7 10 12 12 15
12 14 15 16 18 19 20 20 20 20 20 20 18 15 14 13 12 12 11 10 11 12 12 11 11 11 10 10 10 9 8 7 6 7 9 8 8 9 9 9 9 7 7 7 7 9 9 6 8 9 7 5 5 7 7 5 6 8 8 8 7 4 3 3 5 6 5 2 1 0 1 2 3 3 3 5 2 4 10 11 11 14 14 15 17
11 12 12 12 13 15 16 16 17 17 18 19 18 16 16 16 14 12 11 10 11 12 12 12 12 13 13 11 10 10 11 11 10 11 13 12 11 11 11 12 11 10 9 8 8 9 9 8 9 10 9 9 9 8 8 7 6 8 9 11 10 8 7 5 6 7 5 2 2 3 2 2 4 4 4 6 7 9 13 14 16 17 16 17 18
9 9 9 9 9 9 10 10 11 13 14 15 15 15 16 17 17 16 14 14 14 15 14 14 14 15 15 13 13 15 17 17 17 17 16 14 13 13 13 15 15 13 11 10 11 11 10 9 9 10 10 11 10 9 9 8 8 9 10 11 11 10 8 5 6 5 4 2 3 4 3 3 5 6 7 8 9 11 13 15 17 17 17 19 18
8 8 7 8 9 8 8 8 8 10 11 11 13 15 16 17 19 20 19 19 20 19 18 18 17 18 18 17 18 20 21 21 21 19 16 14 14 15 16 17 17 14 13 12 13 14 14 13 13 12 11 10 10 10 10 10 10 11 11 11 10 9 8 7 7 7 7 5 3 5 5 4 4 5 7 10 10 11 13 15 17 18 20 22 21
8 8 6 6 7 6 6 7 7 7 7 8 10 14 15 16 18 19 19 20 20 20 20 20 20 21 21 21 22 21 20 20 20 19 18 18 18 18 20 20 19 16 15 15 16 16 15 15 15 14 12 10 10 11 12 12 12 12 11 10 10 8 8 8 8 8 9 8 5 4 6 7 8 7 8 12 13 14 15 16 18 20 21 23 26
7 8 7 7 7 7 6 6 6 6 6 6 7 10 12 12 13 15 17 18 18 20 22 22 22 22 22 23 22 21 20 20 18 18 19 20 20 21 22 23 21 19 18 19 18 16 15 16 16 15 13 10 10 11 13 12 12 12 11 10 10 9 9 10 10 9 10 11 10 9 9 10 12 12 13 15 16 17 18 19 19 21 23 24 27
7 8 8 7 7 7 7 6 5 5 5 5 6 7 7 7 8 9 11 12 13 16 19 22 23 24 24 23 22 21 22 21 21 20 20 20 21 21 23 23 22 20 19 18 17 16 16 16 15 14 12 10 10 11 12 12 11 11 10 10 10 10 11 11 12 11 11 12 12 12 13 13 14 16 17 17 17 18 19 21 22 24 26 27 29
9 10 9 7 7 7 7 6 5 4 4 3 4 5 6 8 8 8 8 8 9 10 13 17 19 22 23 22 22 23 24 23 23 23 23 22 22 21 22 22 20 17 15 14 14 15 15 14 13 12 11 10 10 10 9 10 11 11 10 10 9 10 11 12 12 13 13 13 13 14 14 14 15 17 17 17 18 20 21 22 24 25 27 29 30
10 10 9 8 7 7 6 5 5 5 4 2 1 1 3 5 6 7 8 8 8 9 10 12 15 18 20 21 22 25 26 25 24 24 24 24 23 21 21 19 16 13 11 10 10 11 11 11 11 10 9 9 10 10 8 7 8 8 8 9 10 10 11 12 12 12 12 12 13 14 14 14 15 16 17 18 20 21 22 23 24 26 28 29 30
11 10 10 10 8 7 7 5 4 4 2 1 1 1 2 4 5 5 6 6 7 8 9 10 11 13 15 18 20 23 26 25 24 23 23 23 23 23 20 15 11 10 10 10 11 11 9 9 8 7 8 10 10 9 8 6 6 7 8 10 11 11 10 11 11 11 12 12 13 14 14 15 16 17 18 19 20 21 22 23 25 27 28 28 28
14 13 10 10 10 9 7 6 5 3 2 2 3 2 2 3 4 5 5 5 6 7 8 9 10 11 13 15 18 22 25 25 23 22 21 21 22 21 17 12 10 9 9 11 13 13 13 13 12 12 12 12 10 8 8 8 8 9 9 10 11 11 10 11 12 13 14 14 14 15 16 17 18 18 19 20 21 23 25 25 25 25 24 24 24
11 13 11 10 11 10 9 8 5 3 2 2 4 3 3 4 5 5 7 7 7 9 9 9 10 11 13 15 18 21 22 22 20 18 18 19 19 17 15 13 11 10 11 12 15 16 15 16 17 17 15 13 11 10 9 9 10 9 8 9 10 9 8 9 11 12 13 14 16 17 17 18 18 19 20 21 23 23 22 22 22 22 22 23 22
7 10 10 9 9 9 9 9 8 6 5 5 5 4 5 6 6 7 9 10 10 10 11 11 12 13 14 15 17 18 18 18 16 14 16 18 17 16 16 13 12 14 15 15 17 16 15 17 18 17 15 12 10 10 9 9 10 9 7 7 7 8 8 8 10 11 12 14 16 17 18 19 20 20 20 20 18 18 17 18 20 21 22 21 19
10 11 12 13 11 9 8 8 9 8 9 10 10 9 9 9 8 8 10 11 11 12 13 13 14 15 14 13 14 15 16 15 13 13 16 18 17 17 16 14 15 18 18 16 17 15 14 14 15 14 13 11 9 8 8 9 10 11 10 9 9 9 12 12 13 14 14 14 16 18 19 19 18 17 15 14 14 15 15 15 16 16 16 16 15
11 12 14 16 14 11 9 10 11 12 13 15 16 16 14 13 12 10 10 12 13 13 14 14 14 16 16 14 14 15 16 15 15 16 17 17 17 18 19 17 16 18 20 17 15 14 12 12 13 12 10 9 7 7 7 8 11 14 15 15 15 15 16 16 16 16 16 16 17 17 15 12 11 11 13 14 15 14 13 12 12 12 13 14 16
15 16 15 15 15 15 16 17 18 18 19 20 20 20 18 17 16 14 13 13 14 15 15 15 15 16 17 17 17 17 17 18 18 18 18 18 18 18 21 22 17 17 20 18 14 13 10 9 10 9 7 6 6 6 6 7 11 16 17 17 17 16 15 15 15 15 17 17 16 13 10 9 10 10 10 11 12 12 11 11 13 15 17 19 21
18 18 18 18 18 19 19 19 19 20 20 19 20 21 22 21 21 20 18 17 16 17 18 18 18 18 18 19 19 19 19 21 22 20 20 21 21 20 22 25 20 15 16 19 18 16 12 9 8 7 6 7 7 7 7 8 11 16 17 16 16 16 15 15 16 17 17 16 14 12 10 10 9 9 10 12 14 16 18 19 21 23 24 23 21
17 19 20 21 22 22 20 19 17 17 17 17 18 19 20 21 22 23 22 21 20 20 20 20 20 20 20 21 20 20 21 23 23 23 21 21 23 22 22 24 23 16 14 17 20 19 15 13 10 8 7 8 8 8 8 8 11 15 17 17 18 18 18 17 15 13 12 11 10 9 8 8 9 11 13 15 17 19 22 23 23 22 21 20 20
15 16 17 18 19 20 20 20 19 18 17 17 17 18 19 20 21 21 21 22 23 23 23 23 23 22 23 23 21 21 22 23 23 22 21 21 21 21 20 22 22 19 17 17 17 17 17 16 14 11 9 10 9 8 8 9 10 13 14 15 16 15 14 11 9 8 8 8 7 7 8 9 11 12 13 15 15 17 17 18 18 19 20 21 22
14 14 15 15 15 16 17 18 19 19 19 18 18 18 19 20 21 21 22 22 23 24 25 26 25 25 25 25 23 22 22 22 23 23 23 22 22 21 20 21 22 22 21 19 17 17 17 16 15 13 12 11 10 9 8 8 9 10 10 10 10 9 8 7 8 10 10 9 8 8 10 12 13 13 14 15 14 14 16 18 21 22 21 20 20
15 15 15 16 16 16 17 17 18 19 18 18 18 18 19 19 20 21 22 23 24 25 26 27 29 31 31 29 28 27 23 21 22 24 25 24 23 22 22 22 22 23 24 22 20 18 17 16 15 13 12 11 10 9 9 9 9 10 10 8 6 6 7 8 9 11 10 9 9 10 12 13 14 14 14 14 15 16 19 21 21 20 18 18 20
15 15 16 17 17 17 17 17 17 18 18 17 18 19 19 20 21 21 21 21 22 23 23 24 26 30 33 35 35 34 31 26 23 24 25 25 25 24 24 24 23 23 25 25 23 21 19 17 15 14 13 12 11 10 10 10 11 10 6 4 4 5 7 7 7 5 5 7 9 12 13 14 12 11 11 12 14 16 17 17 17 18 18 19 19
15 14 15 15 15 15 16 16 16 17 17 18 19 19 18 18 20 22 23 23 23 22 22 21 19 19 24 29 33 35 34 31 26 24 25 27 27 26 24 23 21 21 22 24 24 22 20 17 17 17 15 13 12 10 9 8 8 7 4 4 5 5 4 2 1 2 6 10 12 14 13 11 10 11 12 13 13 14 15 16 17 17 18 18 18
12 12 13 13 13 14 15 16 16 17 18 19 20 21 22 21 19 19 20 24 28 29 28 25 20 15 15 19 24 28 31 32 30 27 25 25 26 26 22 20 20 22 23 24 23 22 20 19 19 18 16 14 12 8 6 6 7 7 6 6 8 9 8 6 6 8 11 12 12 11 9 8 10 12 14 13 14 16 17 17 16 16 16 17 17
11 11 12 12 14 15 16 17 18 18 19 19 20 22 24 25 25 22 19 20 25 29 32 30 27 24 22 20 19 20 24 28 31 29 26 25 25 26 22 20 21 23 23 23 23 22 21 20 20 17 15 13 10 8 10 11 10 8 8 5 6 9 10 8 8 10 11 10 9 8 7 8 10 13 14 15 17 18 17 17 16 16 17 17 18
11 12 13 13 15 15 16 17 18 18 19 19 19 20 22 24 25 24 22 18 18 22 26 27 27 28 29 27 25 22 20 21 23 24 26 27 26 25 23 22 22 22 22 22 23 23 22 20 19 17 15 11 9 10 14 14 10 8 6 4 4 5 5 5 8 9 8 8 9 7 6 8 11 14 16 17 18 17 16 16 17 17 17 17 17
11 12 13 14 15 15 16 17 18 19 20 19 19 20 21 22 23 24 22 20 17 17 18 20 22 25 27 28 28 27 24 21 20 19 21 23 24 24 22 22 22 23 23 23 23 22 22 19 17 16 14 12 12 15 16 14 12 12 10 7 5 4 4 6 7 6 5 8 10 8 6 9 14 16 17 17 16 16 16 16 16 16 15 16 16
11 12 13 15 16 17 17 18 20 21 21 20 21 23 22 20 21 23 23 22 20 17 15 17 20 23 25 25 25 25 26 25 24 22 20 19 20 20 19 21 25 27 26 25 23 22 20 17 15 16 15 15 17 18 16 14 13 12 11 9 7 6 7 7 7 6 6 8 8 5 5 11 16 17 17 16 16 16 16 17 17 16 15 15 16
13 14 15 15 15 17 18 19 20 21 21 22 22 23 22 20 20 21 21 22 22 20 16 19 21 21 22 23 23 23 23 22 23 24 23 21 20 19 19 24 29 30 27 24 21 20 18 17 17 17 18 18 19 18 15 14 12 9 8 8 8 7 8 7 7 7 8 8 5 3 6 11 13 14 16 16 16 16 16 16 16 17 16 17 18
15 15 14 14 14 17 19 20 20 20 21 22 23 24 24 24 22 21 20 21 22 22 19 19 20 19 19 21 21 21 20 19 20 22 23 23 24 24 24 27 32 31 26 23 21 19 19 19 18 17 17 18 18 15 14 13 11 8 7 7 7 6 7 6 6 7 8 7 5 5 9 11 10 12 15 15 14 14 14 15 16 16 15 16 17
14 13 14 15 16 19 21 21 19 18 19 20 21 21 21 20 20 21 21 21 21 21 20 18 19 18 19 19 18 17 16 16 18 21 23 26 28 28 28 30 31 30 28 25 22 20 20 19 17 16 17 17 16 13 13 12 9 9 10 10 7 6 6 6 5 6 7 7 6 7 10 10 11 12 14 13 12 13 14 15 14 13 13 14 15
11 13 14 16 18 20 21 21 19 17 18 18 17 16 15 14 15 17 20 22 20 18 17 17 17 17 17 16 15 14 12 13 16 19 22 25 27 27 28 30 30 31 31 26 20 19 20 18 16 16 16 14 12 12 12 11 10 9 9 7 4 4 4 3 4 4 6 7 8 8 9 11 12 12 12 13 14 14 13 11 10 11 12 14 15
15 15 14 15 18 19 18 19 19 18 17 16 15 14 14 13 13 15 17 18 16 14 15 14 15 16 16 13 13 15 14 15 17 17 19 23 26 27 29 30 31 32 31 24 20 20 20 18 15 15 14 13 12 12 12 12 11 9 5 3 2 2 2 1 1 4 5 7 8 9 10 12 13 13 13 13 13 10 9 9 10 11 13 15 16
19 18 16 15 17 17 16 18 20 20 19 16 14 13 12 12 13 14 14 13 13 13 13 12 12 16 14 9 12 18 18 18 19 19 21 26 29 30 30 29 26 25 24 22 22 21 19 17 15 15 15 14 14 13 11 10 8 5 4 5 5 5 4 3 6 8 7 8 9 10 11 13 13 12 11 11 9 8 8 9 10 11 13 15 17
18 18 17 16 16 15 15 16 18 18 18 18 15 13 12 11 12 11 9 8 9 9 10 9 10 12 7 3 9 16 18 18 20 23 27 28 27 27 26 23 18 17 17 18 19 18 18 19 18 17 17 16 15 13 11 9 7 6 6 8 9 8 6 6 8 8 6 7 8 10 11 12 11 10 10 10 8 7 7 8 10 12 14 16 18
16 17 17 16 14 13 14 15 15 16 17 17 14 13 12 11 9 7 6 7 7 3 2 4 4 5 6 7 10 14 15 15 18 23 26 24 19 17 17 16 17 17 17 17 18 19 19 20 19 17 16 14 12 10 9 9 9 9 10 11 11 10 9 8 8 7 6 7 7 9 10 11 10 9 9 7 7 9 10 11 13 15 17 17 17
15 16 15 13 12 11 12 14 14 14 17 17 15 14 15 15 14 12 11 10 9 6 3 3 8 11 11 10 10 10 11 13 16 18 20 19 16 16 18 17 18 18 18 17 19 20 20 19 18 17 16 14 13 12 13 13 13 12 11 10 9 7 7 7 7 7 6 5 6 8 9 11 11 9 7 7 9 12 13 15 17 18 18 17 15
15 16 15 12 9 8 11 14 15 14 15 17 16 14 13 13 12 12 12 11 10 8 6 8 11 13 12 10 8 6 7 12 15 17 19 20 19 20 22 20 18 17 16 16 17 18 18 18 17 16 15 15 14 13 12 11 10 9 7 6 5 3 4 5 6 5 4 4 6 7 9 11 11 9 7 9 11 13 16 17 18 18 17 14 13
16 18 16 11 7 6 9 13 16 16 15 15 15 14 13 13 12 9 9 9 10 9 11 14 15 13 11 10 9 10 13 17 19 20 21 20 20 22 24 22 20 19 18 17 18 17 17 16 16 13 11 11 12 11 8 6 5 5 4 3 2 2 3 4 3 3 2 3 5 7 9 11 10 7 8 11 13 15 17 17 17 16 16 15 15
15 18 16 12 8 6 6 9 12 13 12 12 12 12 12 13 13 13 13 13 13 13 16 17 16 14 12 12 13 15 18 20 21 21 21 21 21 22 22 21 21 21 19 17 17 17 16 15 14 11 9 9 11 11 8 6 4 2 1 0 1 2 2 2 1 1 2 3 5 7 9 10 9 8 10 12 13 15 16 16 15 15 16 17 17
13 16 16 13 9 6 6 8 10 9 9 10 11 12 12 11 11 13 15 15 15 15 17 18 17 15 14 13 14 15 18 19 19 18 20 20 20 20 19 18 19 19 18 16 15 14 13 11 9 8 8 7 8 8 6 3 2 2 3 3 4 5 5 4 3 3 3 5 6 7 8 9 10 11 11 12 12 13 14 15 16 17 17 17 17
11 13 14 14 12 9 9 10 10 10 10 10 10 11 12 11 9 9 9 10 12 14 16 17 17 17 17 17 18 18 18 18 16 16 17 18 17 17 16 16 15 16 17 15 13 11 9 7 6 7 8 8 7 5 3 2 3 5 5 5 6 7 8 7 7 7 7 7 8 8 9 10 12 12 12 13 13 13 13 14 16 18 17 16 17
9 10 12 13 13 12 10 10 10 11 11 12 12 12 12 13 12 11 8 8 11 14 16 16 17 18 19 21 21 21 20 19 19 18 17 17 16 15 14 12 10 10 11 11 9 8 7 5 4 7 8 7 5 4 3 3 4 6 5 5 5 6 8 9 9 10 10 10 10 11 11 12 13 14 14 13 12 11 11 12 15 16 16 16 17
7 8 9 10 10 9 9 10 10 10 10 11 12 12 12 13 14 14 12 10 10 13 15 17 18 19 21 22 22 22 21 21 20 17 16 15 13 11 9 7 6 6 7 7 7 7 7 6 6 7 7 5 4 4 4 4 5 5 4 4 4 4 5 7 8 10 10 10 12 12 12 13 15 15 14 13 12 10 10 10 12 14 16 16 16
6 6 7 8 9 8 7 7 8 9 9 9 10 10 11 11 13 14 15 15 14 13 13 14 15 16 17 18 19 19 19 19 17 14 13 12 10 8 7 7 6 6 6 6 6 7 7 8 7 7 5 4 4 5 4 4 4 3 2 2 3 3 4 5 7 8 9 10 11 11 12 14 16 15 13 14 13 11 9 10 12 14 15 15 15
Wind_Direction
181 184 186 185 183 180 180 183 185 189 192 195 196 191 190 194 199 203 198 193 191 180 175 174 162 153 148 142 140 136 133 130 126 125 118 116 118 108 97 90 87 95 99 102 102 95 89 92 100 102 103 98 86 77 73 67 82 87 75 89 94 81 84 105 112 125 129 122 131 133 120 122 120 33 342 355 18 22 12 8 5 360 353 355 359
180 182 184 187 187 185 185 186 187 190 195 198 195 193 196 197 201 202 192 186 183 174 177 176 165 161 159 156 155 149 148 148 145 143 132 126 130 120 117 111 81 99 102 69 68 101 106 80 89 104 112 111 110 112 101 86 97 112 104 102 106 99 89 77 89 103 108 124 148 138 110 126 172 256 338 14 32 40 356 346 3 1 341 341 346
179 181 185 187 187 187 190 189 188 191 200 200 196 202 204 199 203 201 190 184 175 169 189 188 169 168 171 171 172 169 171 172 170 169 160 162 188 192 199 232 312 302 23 45 354 313 310 308 317 112 142 143 140 144 131 103 90 112 117 103 122 125 104 86 93 101 92 97 136 150 129 120 132 35 351 10 24 36 56 7 26 28 339 329 334
177 180 185 185 184 188 190 188 187 191 201 199 196 208 208 201 206 197 182 183 173 171 199 197 174 175 182 184 188 190 190 193 197 204 210 229 249 262 269 274 285 278 228 116 242 290 315 319 307 320 207 201 170 160 153 123 97 106 122 94 106 129 118 107 98 98 105 116 131 140 112 98 116 117 338 4 8 15 35 42 65 69 13 331 332
176 178 180 181 184 186 185 186 185 187 193 191 193 209 205 200 208 194 177 181 175 177 205 201 183 188 192 191 200 209 209 212 219 225 236 253 263 268 267 266 270 260 238 202 212 250 293 332 317 319 279 225 163 156 174 162 154 159 145 140 151 150 141 136 122 105 126 141 155 146 124 126 127 279 291 326 329 39 34 353 262 250 275 308 327
186 180 176 177 182 184 185 188 185 184 186 183 184 199 196 195 204 192 181 187 180 182 202 201 191 199 202 197 205 217 221 227 234 237 249 256 255 261 260 255 260 255 252 252 239 249 262 229 225 259 271 237 183 186 206 201 185 185 180 173 174 168 156 144 129 133 138 116 59 79 152 194 251 240 294 339 4 180 256 284 273 272 282 308 328
186 181 175 174 176 180 183 185 185 186 186 183 184 189 187 192 201 189 182 192 191 193 202 201 196 201 207 208 214 225 229 232 238 240 250 252 248 253 251 247 255 254 256 267 265 267 272 254 233 240 253 259 236 225 244 255 222 211 216 214 210 222 225 183 155 160 161 131 97 196 231 274 274 236 263 312 321 237 256 261 272 286 296 316 330
179 176 172 169 174 182 183 185 189 188 186 187 190 191 187 187 192 189 188 196 203 207 208 206 207 206 206 210 219 227 225 224 224 225 234 244 249 250 248 250 252 250 253 258 254 263 271 260 243 244 252 259 256 253 260 263 244 223 224 228 236 256 267 238 192 177 169 174 273 278 277 294 286 252 244 263 258 257 265 272 282 291 305 322 330
164 156 154 157 166 177 175 175 184 185 185 190 193 196 194 188 185 187 191 197 204 211 211 209 215 217 214 216 223 226 225 223 223 225 230 243 253 251 247 248 243 238 237 234 238 252 254 244 238 239 244 250 253 255 257 254 246 239 238 242 248 260 266 235 194 183 188 226 286 283 263 282 286 258 240 259 277 279 280 285 287 293 312 324 325
128 127 137 149 154 158 158 162 175 183 187 190 190 193 195 195 193 192 195 201 204 208 211 211 215 220 222 224 225 228 230 227 228 233 232 233 242 246 247 249 250 252 253 253 263 267 254 247 248 239 233 242 253 255 253 249 248 247 250 255 260 263 255 228 204 199 206 219 267 274 255 247 270 278 268 269 278 283 283 284 284 294 312 317 314
97 98 99 113 122 121 128 146 161 169 174 180 185 191 196 204 209 208 212 217 214 212 214 215 217 222 226 228 227 232 238 237 235 239 237 233 236 243 251 257 264 269 269 271 279 274 255 249 251 240 230 239 253 255 254 250 247 249 254 260 265 265 251 239 236 232 225 216 211 229 240 241 248 265 275 270 271 277 280 281 284 293 305 309 310
102 102 95 94 102 104 107 125 143 148 156 167 177 188 200 212 220 222 225 229 228 224 223 224 227 228 231 235 234 235 242 247 247 245 246 248 248 248 252 258 264 271 273 275 276 270 255 245 239 231 225 232 247 253 251 247 245 246 250 255 260 259 252 251 257 259 250 240 234 230 236 246 252 258 267 271 274 278 282 285 288 296 303 308 311
84 88 89 90 94 100 101 105 117 131 147 163 171 183 197 210 217 223 230 234 236 234 232 235 237 237 238 242 244 244 244 248 253 254 255 259 258 254 252 256 263 267 269 271 270 262 248 232 223 223 221 227 242 245 240 237 237 237 240 245 250 252 252 255 257 256 254 252 250 247 246 250 256 261 269 274 277 280 284 288 292 299 304 308 310
67 70 74 75 76 78 82 85 82 83 110 143 167 186 198 204 208 219 235 243 246 243 239 241 243 242 242 243 246 250 250 250 254 258 258 259 261 259 255 257 263 262 258 260 258 247 234 222 218 219 216 223 238 239 230 225 225 228 232 235 241 246 248 252 254 252 249 247 250 254 256 260 267 273 278 280 281 285 289 292 296 301 304 306 308
63 60 61 60 65 70 73 86 91 78 78 94 98 203 225 229 225 228 236 244 250 249 243 245 248 246 245 242 243 251 256 257 258 258 258 258 259 258 256 257 257 250 245 242 228 216 214 215 215 212 208 218 230 232 227 215 215 226 233 234 238 241 244 249 254 255 253 250 252 260 266 270 274 278 281 283 286 289 292 296 301 304 305 306 307
54 43 45 42 38 44 50 59 75 72 64 58 38 334 284 282 272 259 252 250 253 251 246 250 252 249 247 246 249 255 260 263 262 260 259 259 258 255 252 247 234 221 215 201 189 187 192 196 199 206 218 225 224 224 229 228 229 240 241 240 244 243 242 248 250 248 250 251 254 261 268 271 274 279 284 287 289 291 295 299 302 304 305 305 305
46 27 25 27 20 24 34 36 38 42 34 9 347 301 272 281 280 276 269 261 259 259 256 256 251 242 241 245 250 255 258 261 262 261 258 255 252 247 235 215 199 199 192 183 187 194 192 188 191 202 216 227 229 229 238 248 255 257 247 240 248 252 247 243 241 242 249 255 259 263 268 272 278 284 288 289 292 296 299 302 303 306 309 311 310
36 15 4 3 5 9 12 10 3 353 343 336 316 291 274 270 268 272 270 261 258 257 254 252 247 239 237 241 244 247 251 254 256 257 253 244 235 224 206 189 184 188 186 189 197 201 197 190 189 196 207 220 230 234 241 247 250 255 253 247 257 270 265 250 246 249 255 260 264 267 271 276 281 285 289 292 295 300 304 307 310 314 317 319 317
334 339 335 332 339 353 357 347 329 310 291 279 273 269 270 268 270 278 273 263 259 257 249 242 240 238 236 240 243 243 245 247 244 240 235 225 212 202 195 189 192 193 193 203 207 202 196 192 191 198 208 215 224 231 234 235 232 236 250 260 273 284 277 264 258 260 264 270 274 276 278 280 285 290 293 298 304 309 314 317 319 319 318 321 321
302 302 296 295 306 324 330 317 304 294 282 272 265 261 261 260 261 269 271 263 255 254 252 245 243 246 245 244 247 245 240 238 231 221 218 212 205 203 197 192 199 198 197 210 217 207 196 195 196 203 212 215 220 225 225 225 221 217 219 227 237 245 250 252 257 263 267 271 276 283 287 292 298 304 309 317 321 319 317 315 316 315 312 313 310
277 280 283 289 295 294 283 277 277 278 279 280 279 276 273 268 261 258 263 265 256 251 253 248 246 251 250 242 244 247 243 237 227 216 214 213 213 211 201 195 205 206 200 206 220 218 208 204 205 205 208 212 215 219 221 220 215 210 209 214 221 228 236 243 251 257 262 269 280 291 301 307 313 319 324 327 322 315 310 304 300 295 286 283 283
273 275 282 286 284 276 271 271 273 275 280 284 286 286 283 277 270 261 257 260 258 254 253 250 248 252 248 237 238 244 245 243 234 223 220 222 222 217 205 199 207 217 209 203 213 223 216 204 204 206 207 215 223 230 236 228 218 215 214 216 220 225 234 244 252 260 268 277 285 289 286 283 290 298 301 299 296 297 299 293 286 280 276 278 282
283 282 281 280 279 280 282 285 286 286 286 285 285 285 284 282 278 271 263 259 258 256 255 250 248 250 247 241 241 241 240 242 242 237 231 227 225 222 211 203 205 216 214 204 205 214 212 199 202 211 218 228 235 242 244 236 224 221 220 222 226 232 241 252 261 269 276 280 280 279 280 283 283 278 271 266 266 271 275 278 279 281 282 282 282
300 295 290 286 285 285 285 285 285 285 284 282 279 278 280 280 279 275 268 261 258 258 258 254 250 249 248 245 243 237 235 241 244 240 232 226 223 220 215 209 205 206 209 207 208 212 214 214 223 235 237 234 238 246 247 236 224 224 228 232 238 245 254 262 267 270 274 280 284 290 295 288 272 266 267 267 270 276 284 290 292 291 286 281 278
313 309 307 304 299 296 292 286 279 275 274 275 274 272 273 273 273 272 270 265 262 259 257 255 253 251 248 244 240 235 235 242 244 234 222 216 215 213 211 210 207 203 207 213 215 218 220 220 226 238 246 243 242 246 246 236 231 233 237 242 249 256 261 262 258 250 248 259 275 280 275 267 266 270 273 274 279 287 294 295 291 287 283 280 280
310 310 310 307 304 303 303 299 294 287 280 275 271 270 272 272 271 269 268 267 266 263 259 256 254 251 248 243 239 237 235 237 238 229 215 209 209 208 206 205 204 205 209 212 214 220 221 220 223 235 243 243 244 250 249 248 250 254 256 261 265 263 252 242 242 248 249 251 256 259 257 257 261 267 271 274 277 278 276 275 277 283 288 291 293
305 306 305 303 302 303 303 303 303 300 297 290 281 274 272 273 272 272 271 270 268 266 264 261 257 253 250 246 242 239 236 232 229 223 216 213 214 214 211 207 205 207 209 211 213 216 217 218 224 234 239 239 243 249 251 257 265 270 277 279 263 242 242 252 263 268 265 254 246 247 255 265 274 280 282 280 278 276 277 279 283 290 295 297 297
303 306 306 305 306 306 305 303 300 301 302 300 294 288 283 279 274 270 269 271 273 270 266 266 265 261 256 253 250 246 244 241 233 222 217 218 220 220 216 210 206 208 209 210 212 214 216 220 226 232 237 237 235 236 245 258 263 263 266 262 245 256 272 279 286 290 264 243 249 262 275 285 290 290 287 287 289 290 289 288 289 291 294 297 298
304 307 306 308 309 308 306 306 303 298 295 292 288 282 279 281 281 274 266 264 268 272 272 273 274 268 258 254 253 250 249 249 244 234 230 228 224 219 216 212 212 218 219 216 215 215 216 220 227 232 235 231 227 232 247 255 246 233 215 196 214 255 280 278 279 262 243 251 269 285 296 302 297 288 286 286 286 285 286 288 290 292 296 301 304
310 309 308 309 307 302 302 306 306 301 296 294 291 280 267 261 265 273 271 264 262 267 272 273 272 268 260 256 254 252 252 254 252 247 246 241 225 215 219 232 239 236 227 220 219 219 217 221 227 230 227 224 223 225 227 226 224 233 245 223 208 219 229 221 226 245 255 269 286 295 299 299 297 298 300 296 289 288 291 297 301 302 303 305 305
315 311 311 310 304 300 300 304 307 304 298 292 291 290 282 267 256 255 263 270 268 265 266 268 269 269 267 265 262 257 253 255 255 250 249 248 232 216 219 236 243 237 226 218 217 218 219 224 225 221 217 219 216 197 196 213 230 245 258 249 220 226 234 236 246 263 279 295 304 306 305 305 305 305 304 298 296 297 301 304 307 305 303 303 303
319 316 314 312 310 309 307 306 306 308 308 302 295 295 297 290 278 266 262 268 277 275 270 270 272 272 270 267 266 263 255 252 254 249 245 245 241 233 229 230 232 234 230 223 217 217 220 223 222 216 211 207 197 191 201 212 217 215 224 236 231 234 244 254 268 285 304 311 311 321 326 312 302 297 294 293 295 298 302 303 302 300 299 301 301
323 320 318 315 314 314 314 312 309 309 314 314 307 301 299 296 295 289 276 267 271 278 281 281 276 272 270 267 266 266 261 256 256 254 246 241 242 242 235 224 222 227 227 223 219 219 219 217 214 208 199 191 194 201 205 206 202 200 203 201 199 216 243 257 270 288 300 299 308 326 326 302 296 296 299 301 302 303 303 301 301 303 304 303 302
325 318 316 316 315 315 316 315 313 312 311 307 305 306 303 294 291 292 288 280 274 273 288 298 287 272 266 264 263 263 263 261 259 257 254 249 245 239 224 213 218 224 223 220 219 217 211 205 199 193 187 190 201 205 203 201 204 207 205 195 189 208 238 251 262 273 283 295 310 327 312 304 306 310 312 310 306 305 305 306 310 312 311 309 310
320 314 313 316 317 318 318 316 314 311 309 306 304 303 299 292 287 286 285 283 276 270 284 304 298 279 265 262 259 256 257 259 258 254 253 251 243 230 216 213 218 220 214 208 207 202 194 187 187 188 188 195 205 207 201 198 201 203 201 195 193 209 233 248 258 270 290 314 334 325 304 307 311 313 312 307 303 305 308 309 311 311 311 315 319
316 316 320 321 319 317 317 318 316 308 302 300 298 295 292 288 284 280 282 285 278 271 279 298 299 284 272 268 263 254 250 250 248 243 241 238 231 220 209 206 210 213 209 198 188 184 183 183 185 189 192 196 202 202 194 193 194 189 185 189 195 210 228 244 258 279 306 331 344 321 313 314 311 306 303 301 301 305 306 305 306 308 311 316 319
318 325 329 326 324 321 321 324 325 316 307 303 302 301 298 291 281 277 282 286 279 267 271 293 302 293 282 278 273 264 254 244 236 231 228 224 218 211 202 198 201 207 206 194 181 180 183 181 181 187 191 193 195 193 188 186 185 182 187 196 206 219 231 251 281 307 325 337 338 324 314 309 304 301 300 300 301 300 300 302 306 311 317 323 327
323 328 324 322 328 332 331 334 337 330 322 319 316 315 311 299 285 279 279 282 278 266 267 286 298 294 288 281 267 253 239 224 218 218 216 210 202 197 198 198 199 200 199 190 181 181 179 176 180 188 187 185 188 188 181 173 172 188 204 209 210 225 245 286 324 327 323 323 324 318 308 305 306 306 302 299 296 296 302 313 327 338 341 342 341
335 335 329 328 339 345 342 345 350 343 332 325 320 320 320 312 302 296 291 287 280 266 266 283 289 284 282 270 238 220 213 207 203 199 195 192 190 191 196 198 196 195 191 177 164 166 169 170 179 184 176 172 179 184 180 176 178 192 201 161 137 203 238 275 281 273 287 303 310 312 313 317 317 313 306 301 301 310 330 348 357 354 348 344 342
339 344 347 350 355 355 352 355 357 352 346 342 335 330 328 322 317 314 307 298 285 273 276 288 278 266 269 257 219 212 210 208 204 194 185 185 188 190 192 191 189 190 183 161 147 153 164 169 174 174 169 170 178 186 191 188 178 169 157 154 174 201 209 220 240 255 275 297 309 322 332 334 332 328 324 324 329 342 352 356 356 352 347 344 342
337 342 352 3 6 359 354 358 359 354 353 353 347 339 333 326 322 322 319 321 319 301 286 276 255 245 245 206 201 210 212 210 204 191 179 177 180 184 186 183 174 173 172 158 148 153 166 172 173 172 170 173 179 189 193 180 157 152 173 189 199 201 199 224 252 268 289 303 317 335 343 343 344 342 335 335 346 1 7 4 1 359 354 349 343
341 341 348 3 11 5 2 6 6 3 6 8 6 7 15 18 12 12 21 26 29 26 245 228 200 175 157 157 180 196 200 199 194 183 176 174 170 165 163 160 152 148 152 157 160 166 171 173 172 172 173 174 178 183 177 162 162 179 197 209 218 219 218 236 263 287 298 303 324 344 347 348 353 346 334 346 19 30 23 16 12 7 359 350 344
346 342 348 1 10 10 12 16 13 8 14 24 30 34 40 43 43 49 57 54 46 46 61 101 113 120 134 154 172 186 191 189 186 180 174 169 160 146 140 141 143 144 147 154 163 169 171 170 171 172 171 168 166 169 171 173 181 195 209 224 236 239 239 252 273 287 289 301 336 352 353 356 358 350 349 19 36 31 22 17 14 6 354 346 344
346 349 359 8 14 19 27 32 29 22 21 28 32 36 40 41 42 55 68 59 38 35 62 92 105 113 122 136 149 161 168 171 172 169 161 155 151 147 142 138 136 139 145 154 163 169 172 175 177 178 176 175 178 182 187 193 200 212 229 247 258 263 265 269 276 278 282 319 350 357 1 4 2 4 23 36 31 25 21 16 9 1 356 355 1
349 358 6 7 9 23 39 42 40 38 36 34 29 27 32 38 42 55 64 48 39 62 92 96 95 99 108 121 131 137 142 146 151 154 153 152 151 149 149 148 144 143 147 155 161 167 172 177 180 181 185 192 198 201 205 213 216 217 232 259 286 302 292 285 282 281 303 348 357 2 11 12 8 19 43 42 31 24 19 10 4 3 7 11 12
350 2 11 13 13 24 40 40 39 42 46 42 34 32 36 42 50 63 72 70 72 89 99 95 90 91 95 104 120 138 148 150 150 151 153 154 154 153 155 156 152 148 149 157 164 170 176 182 189 198 206 205 201 199 201 210 213 200 183 100 27 7 346 335 328 318 351 10 7 8 16 17 16 29 44 42 32 23 14 8 7 10 10 9 10
355 2 12 19 23 35 50 42 35 39 47 49 46 46 47 51 62 77 87 89 91 97 101 100 100 102 99 98 112 136 152 156 153 148 147 150 152 153 155 155 154 154 158 165 171 177 182 187 200 216 216 199 186 186 194 202 176 124 102 87 71 54 44 45 49 43 34 26 18 15 17 17 19 27 37 38 30 20 13 13 16 15 11 9 10
2 2 8 14 19 32 49 50 41 38 42 47 49 48 45 46 55 75 94 104 105 105 108 112 115 118 118 115 117 128 143 149 148 146 147 150 152 154 156 159 163 167 170 173 179 183 184 188 195 194 185 175 171 175 183 155 116 111 104 91 77 64 57 55 55 51 45 36 29 25 23 21 22 26 33 34 27 17 13 17 17 15 13 11 8
10 6 5 8 16 27 38 45 48 51 51 51 51 52 51 50 52 58 76 105 121 124 124 125 127 130 134 133 131 131 135 141 143 146 150 152 155 158 161 162 165 169 173 179 186 190 194 200 187 169 166 167 164 161 153 125 109 108 104 93 79 66 58 55 53 50 46 40 35 31 27 26 30 33 36 35 27 14 11 17 18 16 15 10 3
14 19 14 10 15 27 37 42 48 59 66 66 64 65 67 67 66 65 66 76 105 128 134 134 134 136 140 143 143 142 142 144 144 144 145 147 149 150 147 141 142 154 163 170 176 182 190 192 179 167 169 169 152 142 140 125 112 110 102 87 70 56 51 51 49 45 41 36 34 31 28 30 35 37 34 30 24 15 12 18 22 20 15 7 360
24 33 32 23 15 17 32 51 61 64 67 70 75 81 85 87 89 89 84 82 91 112 130 135 137 138 141 143 145 147 149 149 146 140 139 142 141 132 120 117 126 140 151 161 169 172 177 180 176 173 173 159 137 138 140 127 111 103 88 66 50 41 41 43 40 36 33 30 25 22 23 30 35 33 26 20 17 13 13 20 24 22 14 6 5